Location: Alston School (historical)
(35.5076°N, 89.8251°W)
Time: 23:41:57
(UTC+00:00)

Daily predictions for brighter satellites

Satellite Brightness Start Highest point End
(mag) Time Altitude Azimuth Time Altitude Azimuth Time Altitude Azimuth
Cosmos 1733 0.8 12:01:34 10° S 12:03:11 89° NW 12:04:48 10° N
Helios 1A Rocket 2.8 12:00:02 10° S 12:03:11 41° W 12:06:23 10° NNW
BREEZE-M DEB (TANK) 2.4 12:02:36 10° WSW 12:05:28 56° NW 12:07:49 10° NE
Cosmos 1626 Rocket 3.5 12:01:27 10° S 12:05:51 80° W 12:10:16 10° N
SL-16 R/B 2.2 12:03:50 10° NNW 12:09:29 70° WSW 12:15:05 10° S
Cosmos 1937 Rocket 4.3 12:08:38 10° NW 12:13:04 30° W 12:17:30 10° SSW
SL-4 R/B 4.1 12:20:27 10° NNE 12:20:46 10° NNE 12:21:04 10° NNE
ARIANE 5 R/B 3.2 12:16:56 10° NNE 12:22:06 61° ESE 12:27:15 10° S
IRIDIUM 104 4.4 12:17:48 10° SSW 12:22:57 61° W 12:28:07 10° N
COSMO-SKYMED 1 3.6 12:20:29 10° SSW 12:23:49 24° W 12:27:11 10° NW
ISS -0.3 12:22:02 10° SSE 12:23:54 14° SE 12:25:46 10° E
USA 267 4.2 12:20:53 10° NE 12:27:15 53° SE 12:33:35 10° SSW
Cosmos-2242 3.6 12:23:47 10° NNW 12:27:37 35° W 12:31:25 10° SSW
OAO 2 Rocket 3.7 12:22:52 10° WSW 12:28:01 70° SSE 12:33:04 10° E
UNK 3.7 23:04:15 10° NNE 23:08:50 76° ESE 23:13:20 10° S
Cosmos 1570 Rocket 4.0 23:06:27 10° NNW 23:11:48 81° ENE 23:17:05 10° SSE
Cosmos 1486 Rocket 4.4 23:08:58 10° SSW 23:14:07 66° WNW 23:19:20 10° NNE
Cosmos 836 Rocket 4.5 23:09:07 10° NNW 23:14:22 76° ENE 23:19:38 10° SSE
Cosmos 2279 Rocket 4.5 23:12:11 10° SSW 23:18:18 66° W 23:24:31 10° N
Cosmos 1743 2.3 23:16:54 10° N 23:20:06 55° E 23:23:15 10° SSE
Aureole 1 Rocket 4.5 23:22:19 10° SE 23:25:07 18° E 23:28:20 10° NE
Cosmos 2098 Rocket 3.6 23:22:39 10° SSW 23:26:20 56° W 23:30:43 10° N
Cosmos 773 Rocket 4.0 23:22:06 10° NNW 23:27:20 79° ENE 23:32:35 10° SSE
Cosmos 1825 Rocket 4.4 23:24:44 10° NNE 23:28:29 28° ENE 23:32:11 10° SE
Cosmos 1758 Rocket 3.9 23:26:36 10° NNW 23:30:52 69° W 23:35:06 10° S
NOSS 2-3 (C) 3.4 23:27:27 10° SSW 23:30:55 45° ESE 23:34:01 11° NE
Cosmos 2297 Rocket 2.2 23:25:37 10° NNW 23:31:13 60° ENE 23:36:47 10° SSE
Cosmos 2151 2.9 23:28:25 10° N 23:32:33 67° E 23:36:41 10° SSE
IRIDIUM 106 4.3 23:27:24 10° N 23:32:37 70° E 23:37:48 10° S
Cosmos 990 Rocket 4.0 23:27:48 10° S 23:32:50 65° ESE 23:37:55 10° NNE
ARIANE 5 R/B 2.5 23:28:56 10° SSE 23:33:53 64° ENE 23:38:55 10° N
IRS-P3 4.4 23:30:45 10° SE 23:35:46 45° ENE 23:40:49 10° N
USA 238 DEB 3.7 23:30:42 10° S 23:36:20 48° ESE 23:42:20 10° NE
USA 238 3.8 23:30:49 10° S 23:36:27 47° ESE 23:42:25 10° NE
Cosmos 2058 Rocket 4.3 23:37:11 10° SE 23:40:40 23° E 23:43:31 13° NE
Cosmos 1933 3.2 23:40:38 10° S 23:44:27 87° W 23:48:18 10° N
SPOT 1/Viking Rocket 4.0 23:40:08 10° SE 23:44:51 37° ENE 23:49:36 10° N
SJ-12 3.6 23:43:07 10° SSE 23:46:53 80° ENE 23:50:40 10° N
Meteor 1-25 Rocket 4.2 23:43:15 10° N 23:49:01 65° E 23:54:42 10° SSE
BlueWalker 3 1.6 23:46:08 10° NW 23:49:46 74° NE 23:53:21 10° SE
Cosmos 1607 3.9 23:43:45 10° NNW 23:49:59 64° ENE 23:56:13 10° SE
Cosmos 1980 Rocket 2.5 23:44:50 10° S 23:50:14 48° ESE 23:55:10 12° NE
SAR-Lupe-3 3.6 23:47:44 10° N 23:50:14 82° WNW 23:52:44 10° SSW
Hubble Space Telescope 2.8 23:50:28 10° SSW 23:52:50 16° SSE 23:55:11 10° SE
AQUARIUS 4.0 23:48:43 10° SSE 23:53:07 78° ENE 23:57:30 10° N
